Lubbock Preston Smith International Airport
KLBB : now visible

Airfield :











YOU CAN JOIN US ON...

 
LOGIN :

Register | Disclaimer

   EN    FR    IT 

 









Legend :    VFR   Marginal VFR   IFR   Intensive IFR   Very Intensive IFR
Visi :
Ceiling :
>= 8 km
>= 3000ft
5 to 8 km
1000 to 3000 ft
1500m to 5 km
500 to 1000 ft
800 to 1500m
200 to 500 ft
< 800m
< 200 ft
Symbols :   Thunderstorms  Fog  Heavy snow  Heavy precipitations  Wind > 20 kt






- Airport Elevation : 3282 ft
- IATA code : LBB


KLBB - Lubbock Preston Smith International

CURRENT METAR :
  • 180553Z 18010KT 10SM CLR 02/M04 A2998 RMK AO2 SLP146 T00221039 10072 20011 401061044 58020

EXPIRED METARs :
  • 180453Z 18009KT 10SM FEW180 03/M04 A3001 RMK AO2 SLP157 T00331039
  • 180353Z 16009KT 10SM FEW180 FEW250 03/M04 A3003 RMK AO2 SLP170 T00281039

TAF KLBB
Valid from the 18 at 06:00 until the 19 at 06:00 UTC


180520Z 1806/1906 18008KT P6SM FEW250
FM181700 36015G25KT P6SM SCT200
FM190000 03011KT P6SM SCT200
KZFW FIR / North America



MET'MAP, your aeronautical weather chart ! - Copyright ORBIFLY December 2007 - Disclaimer

ORBIFLY MET'MAP TEAM :

Programming & Development : Alexandra Zaïnal
Concept & original design : Baudouin d'Aumeries
Assistance for programming : Marc-Olivier Méhu
Technical & hardware support : Manuel Goepfert

Contact : metmap@orbifly.com




SOURCES & CREDITS :

   NOAA       Earth
Advisory